FALCON 9 R/B, 60424

Orbit data source: Space-Track

FALCON 9 R/B, 60424 is space debris in HEO originally from a launch on Mon, 12 Aug 2024 UTC launched from the Air Force Western Test Range (AFWTR). Debris objects in space refer to the collection of defunct objects orbiting the Earth. Examples of debris include non-operational satellites, rocket bodies, and fragments generated from explosions, collisions, or faulty payload assembly.

Loading next visibility...
Identifier
60424, 2024-143C
Orbit
HEO
Country
Flag of USUS
Related business
Manufacturer
SpaceX
Mission
Spacecraft
Bus & Motor
F9ST2, Unknown motor
Mass
~3,000 kg wet, ~3,000 kg dry
Launch date (UTC)
2024-08-12 (1 year ago)
Launch vehicle
Unknown
Launch site
Air Force Western Test Range (AFWTR)
Object type
Payload
Rocket body
Debris
Shape & HBR
Cyl, 7.8 m
Radar Cross Section
39.980 m², Large (>1 m²)

Expand to show TLE details & history
Last TLE update: 22 hours ago

TLE from 22 hours ago
0 FALCON 9 R/B
1 60424U 24143C   25257.97232906  .00001650  00000-0  39273-3 0  9998
2 60424  62.3409 160.7069 4720520 289.9585  26.2896  6.04899408 24048
Epoch: 2025-09-14T23:20Z
TLE epoch observation values (Epoch: 2025-09-14T23:20:09.23Z)
Latitude
Longitude
176.48402°
Altitude
2,146.195 km
Speed
7.888 km/s
True Right ascension
10h 42m 49s
True Declination
0° 00' 00"
Sunlit
Object was in daylight at epoch
Visualization orbit readout
Latitude
Unknown
Longitude
Unknown
Altitude
Unknown
Speed
Unknown
Apparent Right ascension
Unknown
Apparent Declination
Unknown
Sunlit
N/A
Visualization observer readout
Local Sidereal Time
13:58:21
Azimuth
Unknown
Elevation
Unknown
Doppler factor
Unknown
Orbital elements
Apogee altitude
12,350.493 km
Perigee altitude
338.842 km
Semi-major axis
12,722.804 km
Eccentricity
0.47205
Inclination
62.3409°
RAAN
160.7069°
Arg. of periapsis
289.9585°
True anomaly
70.15853°
Mean anomaly
26.2896°
Eccentric anomaly
45.62038°
Mean motion
1.51241 °/min
Orbital period
238.03 mins
BSTAR
0.00039273
Loading maneuver chart data...
Computing Atmospheric mass density...
Loading historical data...
Loading historical data...
Loading historical data...
Loading historical data...
Loading historical data...
Loading historical data...
Loading historical data...
Other satellites on launch #143 in the year 2024 (2024-08-12 UTC)

Documentation

Showing up to 5 results
|